• Processing (Info)

  • MPEC 2013-T71 : 2013 TG69

    The following Minor Planet Electronic Circular may be linked-to from your own Web pages, but must not otherwise be redistributed electronically.

    A form allowing access to any MPEC is at the bottom of this page.


    Read MPEC 2013-T70 Read MPEC 2013-T72


    M.P.E.C. 2013-T71                                Issued 2013 Oct. 8, 16:46 UT
    
         The Minor Planet Electronic Circulars contain information on unusual
             minor planets and routine data on comets.  They are published
       on behalf of Commission 20 of the International Astronomical Union by the
              Minor Planet Center, Smithsonian Astrophysical Observatory,
                              Cambridge, MA 02138, U.S.A.
    
                 Prepared using the Tamkin Foundation Computer Network
    
                                  MPC@CFA.HARVARD.EDU
                URL http://www.minorplanetcenter.net/    ISSN 1523-6714
    
                                       2013 TG69
    
    Observations:
         K13T69G* C2013 10 05.38346 02 03 50.023+17 03 36.99         20.9 wLET071F51
         K13T69G  C2013 10 05.39705 02 03 50.542+17 04 02.40         20.8 wLET071F51
         K13T69G  C2013 10 06.35200 02 04 33.56 +17 33 38.1          20.9 RoET071926
         K13T69G  C2013 10 06.36668 02 04 34.10 +17 34 05.5          20.8 RoET071926
         K13T69G  C2013 10 06.37994 02 04 34.58 +17 34 30.5          20.7 RoET071926
         K13T69G KC2013 10 06.43116102 04 36.33 +17 36 05.5          20.6 VqET071V37
         K13T69G KC2013 10 06.43777102 04 36.60 +17 36 17.7          20.7 VqET071V37
         K13T69G KC2013 10 06.44572502 04 36.90 +17 36 32.0          20.5 VqET071V37
         K13T69G HC2013 10 06.46083 02 04 37.62 +17 36 59.9          19.7 RoET071291
         K13T69G HC2013 10 06.46368 02 04 37.73 +17 37 05.4          19.4 RoET071291
         K13T69G HC2013 10 06.46654 02 04 37.84 +17 37 10.7          19.7 RoET071291
         K13T69G KC2013 10 07.41818 02 05 20.40 +18 06 57.2          19.6 RqET071H36
         K13T69G KC2013 10 07.43459 02 05 21.06 +18 07 27.5          20.0 RqET071H36
         K13T69G KC2013 10 07.96156502 05 45.69 +18 24 03.1          20.0 VuET071I93
         K13T69G KC2013 10 07.97470502 05 46.17 +18 24 28.7          20.0 VuET071I93
         K13T69G KC2013 10 07.98717202 05 46.64 +18 24 52.1          20.1 VuET071I93
         K13T69G  C2013 10 08.24093 02 05 58.06 +18 32 56.7          19.7 RtET071H01
         K13T69G  C2013 10 08.24901 02 05 58.35 +18 33 12.2          19.6 RtET071H01
         K13T69G  C2013 10 08.25707 02 05 58.64 +18 33 27.7          19.7 RtET071H01
         K13T69G  C2013 10 08.26359 02 05 58.87 +18 33 40.2          19.8 RtET071H01
         K13T69G  C2013 10 08.33646 02 06 01.48 +18 36 00.3          20.3 RoET071926
         K13T69G  C2013 10 08.34657 02 06 01.83 +18 36 19.6          20.3 RoET071926
         K13T69G  C2013 10 08.36082 02 06 02.31 +18 36 46.5          20.0 RoET071926
    
    Observer details:
    291 LPL/Spacewatch II.  Observer R. S. McMillan.  1.8-m f/2.7 reflector + CCD.
    926 Tenagra II Observatory.  Observers M. Schwartz, P. R. Holvorcem.  0.81-m
        f/7 Ritchey-Chretien + CCD.
    F51 Pan-STARRS 1, Haleakala.  Observers N. Primak, A. Schultz. T. Goggia,
        M. Willman.  Measurer PS1 Science Consortium.  1.8-m Ritchey-Chretien
        + CCD.
    H01 Magdalena Ridge Observatory, Socorro.  Observer W. H. Ryan.  2.4-m f/8.9
        reflector + CCD.
    H36 Sandlot Observatory, Scranton.  Observer G. Hug.  0.56-m reflector + CCD.
    I93 St Pardon de Conques.  Observer F. Losse.  0.40-m f/3.7 reflector + CCD.
    V37 McDonald Observatory-LCOGT ELP.  Observer T. Lister.  1.0-m f/8
        Ritchey-Chretien + CCD.
    
    Orbital elements:
    2013 TG69
    Epoch 2013 Nov. 4.0 TT = JDT 2456600.5                  MPC
    M   0.11869              (2000.0)            P               Q
    n   0.16634262     Peri.   31.89053     +0.74681797     -0.66459917
    a   3.2744148      Node     9.87009     +0.57710888     +0.62981406
    e   0.5991844      Incl.    8.01223     +0.33046673     +0.40204749
    P   5.93           H   21.1           G   0.15           U   7
    Residuals in seconds of arc
    131005 F51  0.0   0.1+    131006 291  0.0   0.3-    131008 H01  0.1+  0.0
    131005 F51  0.1-  0.0     131006 291  0.1+  0.0     131008 H01  0.1+  0.0
    131006 926  0.1-  0.1+    131006 291  0.1+  0.0     131008 H01  0.1+  0.0
    131006 926  0.0   0.1+    131007 H36  0.5-  0.0     131008 H01  0.1+  0.0
    131006 926  0.1-  0.3+    131007 H36  0.0   0.2-    131008 926  0.1-  0.0
    131006 V37  0.1+  0.2+    131007 I93  0.0   0.1-    131008 926  0.1-  0.1+
    131006 V37  0.3+  0.2+    131007 I93  0.1-  0.4+    131008 926  0.2-  0.1-
    131006 V37  0.3+  0.2-    131007 I93  0.1+  0.0
    
    Ephemeris:
    2013 TG69                a,e,i = 3.27, 0.60, 8                   q = 1.3124
    Date    TT    R. A. (2000) Decl.     Delta      r     Elong.  Phase     V
    2013 09 08    01 35 45.6 +05 18 47   0.5341  1.4618   141.0    25.7    21.7
    ...
    2013 09 23    01 52 45.5 +11 07 35   0.4342  1.3960   149.8    21.2    21.1
    ...
    2013 10 01    02 00 14.7 +14 51 09   0.3941  1.3676   154.5    18.3    20.7
    ...
    2013 10 07    02 05 02.7 +17 53 58   0.3704  1.3499   157.9    16.2    20.5
    2013 10 08    02 05 46.7 +18 25 26   0.3670  1.3473   158.4    15.8    20.4
    2013 10 09    02 06 29.8 +18 57 08   0.3637  1.3447   158.9    15.5    20.4
    ...
    2013 10 15    02 10 28.4 +22 10 41   0.3473  1.3314   161.6    13.6    20.2
    ...
    2013 10 23    02 15 05.7 +26 28 56   0.3341  1.3190   163.7    12.2    20.1
    ...
    2013 11 07    02 23 16.8 +33 34 30   0.3347  1.3131   161.7    13.7    20.1
    
    A. U. Tomatic                (C) Copyright 2013 MPC           M.P.E.C. 2013-T71
    

    Read MPEC 2013-T70 Read MPEC 2013-T72


    MPEC number:

    Enter an MPEC number in one of the following forms:

    • 1997-B01 (the full form)
    • J97B01 (the packed version of the full form)
    • B01 (the abbreviated form)